Other Public Products
Issued by NWS Grand Forks, ND

Home | Current Version | Previous Version | Graphics & Text | Print | Product List | Glossary On
Versions: 1 2 3 4 5 6 7 8 9 10 11 12 13 14 15 16 17 18 19 20 21 22 23 24 25 26 27 28 29 30 31 32 33 34 35 36 37 38 39 40 41 42 43 44 45 46 47 48 49 50
133
FPUS83 KFGF 192310
OPUFGF
PRAIRIE TO PINES WEATHER ROUNDUP
NATIONAL WEATHER SERVICE EASTERN NORTH DAKOTA/GRAND FORKS ND
600 PM CDT THU APR 19 2018

 **SATELLITE DATA USED TO AUGMENT SKY COVER AT AUTOMATED STATIONS**
 *****  WEATHER ACROSS EASTERN NORTH DAKOTA  *****

CITY           SKY/WX    TMP DP  RH WIND       PRES   REMARKS
GRAND FORKS    FAIR      53  35  50 SW16      30.37S
GRND FORKS AFB FAIR      53  32  45 S16       30.37S
GRND FORKS NWS   N/A     54  30  40 SW12      30.35S
BUXTON           N/A     52  36  54 SW6         N/A
DEVILS LAKE    NOT AVBL
FARGO          FAIR      55  33  43 N10       30.38F
WAHPETON ARPT  FAIR      54  28  37 CALM      30.39F
$$

 *****  WEATHER ACROSS CENTRAL AND WESTERN NORTH DAKOTA  *****

CITY           SKY/WX    TMP DP  RH WIND       PRES   REMARKS
JAMESTOWN      FAIR      54  24  31 SE6       30.35F
BISMARCK       FAIR      55  33  43 E9        30.32F
MINOT          FAIR      47  35  63 S6        30.34F
MINOT AFB      FAIR      49  37  64 SW8       30.33F
GARRISON         N/A     44  35  70 E9        30.33F
WILLISTON      FAIR      53  35  50 E14       30.29F
DICKINSON      FAIR      57  28  33 E13       30.23F
HETTINGER      FAIR      55  27  34 SE16      30.24F
$$

 *****  OTHER OBSERVATIONS NORTHEAST NORTH DAKOTA  *****

CITY           SKY/WX    TMP DP  RH WIND       PRES   REMARKS
WALHALLA       FAIR      55  32  41 SW6       30.36R
LANGDON        CLOUDY    52  37  58 W7        30.36S
CAVALIER         N/A     57  32  38 SW8       30.35S
GRAFTON        MOCLDY    55  36  47 SE14      30.37S
CANDO          MOCLDY    50  36  57 W5        30.38S
FORT TOTTEN      N/A     52  32  47 N2        29.95S
ROLLA          FAIR      48  36  61 S8        30.35S
RUGBY          FAIR      48  37  66 VRB5      30.35S
 ***** THE ABOVE OBSERVATIONS ARE NON NWS ARE NOT QUALITY
        CONTROLLED AND MAY MIS-REPORT RAIN FOR SNOW...
$$

 *****  OTHER OBSERVATIONS SOUTHEAST NORTH DAKOTA *****

CITY           SKY/WX    TMP DP  RH WIND       PRES   REMARKS
COOPERSTOWN    FAIR      50  32  50 S12       30.38F
VALLEY CITY    FAIR      50  28  43 CALM      30.40S
OAKES            N/A     54  32  43 SW7       30.37F
GWINNER          N/A     55  30  38 CALM      30.38S
SHEYENNE NWR     N/A     57  30  35 CALM      29.95S
BUFFALO          N/A     51  27  39 W3          N/A
WYNDMERE       NOT AVBL
 ***** THE ABOVE OBSERVATIONS ARE NON NWS ARE NOT QUALITY
       CONTROLLED AND MAY MIS-REPORT RAIN FOR SNOW...
$$

  *****  WEATHER ACROSS NORTHERN MINNESOTA  *****

CITY           SKY/WX    TMP DP  RH WIND       PRES   REMARKS
FLAG ISLAND    FAIR      39  25  56 SE6       30.36S
WARROAD        FAIR      55  27  33 SW8       30.36F
ROSEAU         FAIR      55  30  38 SW6       30.36F
HALLOCK        FAIR      55  34  44 S9        30.36S
THF RVR FALLS  FAIR      54  27  35 W8        30.39S
HALSTAD        NOT AVBL
FOSSTON        FAIR      57  19  23 SW5       30.39S
BAUDETTE       FAIR      55  17  22 CALM      30.36S
WASKISH        FAIR      55  18  22 W6        30.37S
CROOKSTON      FAIR      54  28  37 W6        30.40R
$$
  *****  WEATHER ACROSS CENTRAL AND WEST MINNESOTA  *****

CITY           SKY/WX    TMP DP  RH WIND       PRES   REMARKS
BEMIDJI        FAIR      54  19  25 NW8       30.37F
PARK RAPIDS    FAIR      52  25  35 S7        30.38F
WADENA         FAIR      50  28  43 W3        30.40S
DETROIT LAKES  FAIR      54  27  35 CALM      30.40S
MOORHEAD       FAIR      55  27  33 SW6       30.40S
FERGUS FALLS   FAIR      54  30  40 CALM      30.38R
ELBOW LAKE     CLOUDY    52  33  47 CALM      30.41S
MORRIS MN      FAIR      52  36  54 S14       30.41F
STAPLES        FAIR      50  25  37 CALM      30.40F
WHEATON        PTSUNNY   55  28  35 W7        30.42S
$$
  *****  WEATHER ELSEWHERE ACROSS MINNESOTA  *****

CITY           SKY/WX    TMP DP  RH WIND       PRES   REMARKS
DULUTH         FAIR      54  14  20 NW7       30.37S
INTRNTL FALLS  FAIR      55  12  18 NW7       30.36S
ELY            FAIR      52   9  17 W6        30.36R
CLOQUET        FAIR      54  10  17 SW6       30.37S
BRAINERD       FAIR      55  18  23 NW7       30.40S
HIBBING        FAIR      52  13  21 W7        30.37S
ALEXANDRIA     FAIR      54  31  41 SW10      30.42S
SAINT CLOUD    FAIR      52  23  32 SW8       30.42S
MINNEAPOLIS    FAIR      52  20  28 NW6       30.44S
$$

  *****  WEATHER ACROSS SOUTH DAKOTA  *****

CITY           SKY/WX    TMP DP  RH WIND       PRES   REMARKS
SIOUX FALLS    PTSUNNY   43  24  47 E9        30.43F
BROOKINGS      FAIR      47  24  40 S9        30.43F
WATERTOWN      FAIR      48  30  49 S7        30.39F
HURON          FAIR      44  32  62 SW9       30.40F
SISSETON         N/A     53  29  39 SW7       30.39F
ABERDEEN       FAIR      55  33  43 S10       30.38F
MITCHELL       FAIR      43  32  65 E10       30.41F
PIERRE         FAIR      50  31  48 SE18      30.31F
MOBRIDGE       FAIR      56  32  40 SE14      30.29F
RAPID CITY     FAIR      57  31  37 E20       30.16F
$$

  *****  SOME WEATHER IN NEARBY STATES *****

CITY           SKY/WX    TMP DP  RH WIND       PRES   REMARKS
GLASGOW MT     FAIR      59  33  37 E25G32    30.16F
GREAT FALLS MT FAIR      60  28  29 VRB7      30.04F
CHEYENNE WY    FAIR      56  17  21 SE26G36   30.04F
SCOTTSBLUFF NE FAIR      61  30  31 SE26G35   30.09F
OMAHA NE       FAIR      58  27  30 E7        30.38F
DES MOINES IA  FAIR      53  25  33 E7        30.43F
DAVENPORT IA   FAIR      53  25  33 N10       30.45S
CHICAGO IL     FAIR      53  22  29 N6        30.39R
EAU CLAIRE WI  FAIR      49  19  30 SW5       30.42F
LA CROSSE WI   FAIR      51  25  36 NW6       30.44F
$$

  *****  SOME NATIONAL WEATHER *****

CITY           SKY/WX    TMP DP  RH WIND       PRES   REMARKS
LA GUARDIA NY  MOCLDY    46  27  47 NW21G33   29.86R
RALEIGH NC     FAIR      57  32  38 N14G28    30.04R
ATLANTA GA     FAIR      60  36  40 NW17G25   30.13R
NEW ORLEANS LA PTSUNNY   75  49  39 N10       30.13S
OKLAHOMA CITY  FAIR      64  28  25 VRB3      30.29F
ALBUQUERQUE NM PTSUNNY   75  17  11 S29G39    29.97F
SALT LAKE CITY PTSUNNY   66  21  18 N9        29.72F
LOS ANGELES CA FAIR      61  44  53 W17       30.03F
BOISE ID       FAIR      67  27  22 NW18G28   29.88F
SEATTLE WA     PTSUNNY   61  36  39 W6        30.25F
$$

*** WEATHER ACROSS MANITOBA...SASKATCHEWAN AND ONTARIO ***
                ***ONTARIO***

CITY           SKY/WX    TMP DP  RH WIND       PRES   REMARKS
GERALDTON      MOSUNNY   48  12  23 N7        30.31R
THUNDER BAY    MOSUNNY   55  14  19 NW9       30.33S
SIOUX LOOKOUT  MOSUNNY   52   9  17 NW6       30.33S
TORONTO        MOSUNNY   37  19  48 N18G25    30.10R
BIG TROUT LK   SUNNY     50  21  32 N5        30.30R
PICKLE LAKE    PTSUNNY   55  10  16 NW3       30.28S
DRYDEN         SUNNY     54  12  19 W7        30.33F
KENORA         MOSUNNY   52  12  20 SW8       30.35S
$$
                *** MANITOBA***

CITY           SKY/WX    TMP DP  RH WIND       PRES   REMARKS
BRANDON        MOSUNNY   50  34  53 N9        30.36S
DAUPHIN        SUNNY     54  28  37 E6        30.37S
ISLAND LAKE    MOSUNNY   46  19  34 NW8       30.34S
PILOT MOUND      N/A     50  34  53 SW8         N/A
THE PAS        MOSUNNY   50  25  37 SE9       30.31S
THOMPSON       MOSUNNY   52  19  28 S7        30.29F
WINNIPEG       MOSUNNY   57  28  33 W6        30.35S
LYNN LAKE      SUNNY     52  21  30 SW15G21   30.18F
CHURCHILL      MOSUNNY   36  28  75 E10       30.31S
GILLAM         SUNNY     48  23  37 N3        30.33F
$$
                ***SASKATCHEWAN***

CITY           SKY/WX    TMP DP  RH WIND       PRES   REMARKS
ESTEVAN        PTSUNNY   50  23  34 E10G18    30.33F
KINDERSLEY     MOSUNNY   55  39  54 SE18G24   30.13F
LLOYDMINSTER   MOSUNNY   52  36  54 SE16      30.12F
PRINCE ALBERT  MOSUNNY   43  30  61 S9        30.29S
REGINA         MOSUNNY   45  37  76 SE15      30.33F
YORKTON        SUNNY     43  30  61 W7        30.36F



USA.gov is the U.S. government's official web portal to all federal, state and local government web resources and services.